Station Historical Data
Daily Summary for January 6, 2018 Units:  English    Metric   Both
« Previous Day
Next Day »
Daily Weekly Monthly Yearly Custom
  High: Low: Average:
Temperature: 17.3 °F 8.1 °F 12.2 °F
Dew Point: -0.5 °F -4.3 °F -2.6 °F
Humidity: 57 % 43 % 51 %
Wind Speed: 16.0 mph 0.0 mph 3.9 mph
Wind Gust: 23.0 mph - -
Wind:- - WSW
Pressure: 30.62 in 30.31 in -
Precipitation: 0.00 in    
Historical Graphs
 
 
Tabular Data for January 6, 2018
Time Temperature Dew Point Pressure Wind Wind Speed Wind Gust Humidity Rainfall Rate (Hourly)
00:02 12.2 °F -1.7 °F 30.31 in Calm   13.0 mph 53 % 0.00 in
00:07 12.0 °F -1.9 °F 30.32 in WSW 4.0 mph 13.0 mph 53 % 0.00 in
00:12 11.9 °F -2.0 °F 30.32 in West 2.0 mph 13.0 mph 53 % 0.00 in
00:17 11.9 °F -2.0 °F 30.32 in West 1.0 mph 13.0 mph 53 % 0.00 in
00:22 11.9 °F -2.0 °F 30.32 in WSW 5.0 mph 11.0 mph 53 % 0.00 in
00:25 11.8 °F -2.1 °F 30.32 in WSW 4.0 mph 11.0 mph 53 % 0.00 in
00:30 11.8 °F -1.7 °F 30.32 in West 1.0 mph 11.0 mph 54 % 0.00 in
00:35 11.7 °F -1.8 °F 30.32 in WSW 4.0 mph 11.0 mph 54 % 0.00 in
00:40 11.8 °F -1.7 °F 30.32 in West 2.0 mph 10.0 mph 54 % 0.00 in
00:42 11.8 °F -1.7 °F 30.32 in WSW 2.0 mph 10.0 mph 54 % 0.00 in
00:47 11.7 °F -2.2 °F 30.32 in NW 3.0 mph 13.0 mph 53 % 0.00 in
00:52 11.7 °F -1.8 °F 30.32 in WSW 1.0 mph 13.0 mph 54 % 0.00 in
00:53 11.7 °F -1.8 °F 30.32 in WSW 4.0 mph 13.0 mph 54 % 0.00 in
00:58 11.6 °F -1.9 °F 30.32 in SW 7.0 mph 13.0 mph 54 % 0.00 in
01:03 11.6 °F -1.9 °F 30.32 in WSW 4.0 mph 13.0 mph 54 % 0.00 in
01:07 11.6 °F -1.9 °F 30.32 in WSW 2.0 mph 10.0 mph 54 % 0.00 in
01:12 11.6 °F -1.9 °F 30.33 in Calm   10.0 mph 54 % 0.00 in
01:17 11.4 °F -2.1 °F 30.33 in Calm   10.0 mph 54 % 0.00 in
01:22 11.2 °F -2.2 °F 30.33 in WSW 5.0 mph 10.0 mph 54 % 0.00 in
01:27 11.2 °F -2.2 °F 30.34 in WSW 3.0 mph 10.0 mph 54 % 0.00 in
01:32 11.1 °F -1.9 °F 30.34 in WSW 1.0 mph 9.0 mph 55 % 0.00 in
01:33 11.1 °F -1.9 °F 30.34 in Calm   9.0 mph 55 % 0.00 in
01:38 10.9 °F -2.1 °F 30.34 in Calm   9.0 mph 55 % 0.00 in
01:42 10.8 °F -2.2 °F 30.34 in Calm   9.0 mph 55 % 0.00 in
01:47 10.7 °F -2.3 °F 30.34 in Calm   6.0 mph 55 % 0.00 in
01:49 10.7 °F -2.3 °F 30.34 in WSW 1.0 mph 6.0 mph 55 % 0.00 in
01:54 10.6 °F -2.4 °F 30.35 in WSW 3.0 mph 7.0 mph 55 % 0.00 in
01:59 10.5 °F -2.5 °F 30.35 in WSW 3.0 mph 7.0 mph 55 % 0.00 in
02:04 10.6 °F -2.8 °F 30.35 in Calm   7.0 mph 54 % 0.00 in
02:05 10.6 °F -2.8 °F 30.35 in Calm   7.0 mph 54 % 0.00 in
02:10 10.6 °F -2.8 °F 30.36 in WSW 1.0 mph 12.0 mph 54 % 0.00 in
02:15 10.6 °F -2.8 °F 30.36 in Calm   12.0 mph 54 % 0.00 in
02:20 10.5 °F -2.9 °F 30.36 in SW 2.0 mph 12.0 mph 54 % 0.00 in
02:21 10.5 °F -2.9 °F 30.36 in SW 7.0 mph 12.0 mph 54 % 0.00 in
02:26 10.6 °F -2.8 °F 30.36 in West 4.0 mph 12.0 mph 54 % 0.00 in
02:28 10.6 °F -2.8 °F 30.36 in WSW 8.0 mph 12.0 mph 54 % 0.00 in
02:33 10.6 °F -2.8 °F 30.36 in Calm   12.0 mph 54 % 0.00 in
02:35 10.5 °F -2.9 °F 30.36 in Calm   12.0 mph 54 % 0.00 in
02:40 10.5 °F -2.9 °F 30.36 in Calm   12.0 mph 54 % 0.00 in
02:41 10.5 °F -2.9 °F 30.36 in WSW 2.0 mph 12.0 mph 54 % 0.00 in
02:46 10.5 °F -2.9 °F 30.37 in WSW 2.0 mph 11.0 mph 54 % 0.00 in
02:51 10.4 °F -3.0 °F 30.37 in SW 10.0 mph 12.0 mph 54 % 0.00 in
02:52 10.4 °F -3.0 °F 30.37 in SW 3.0 mph 12.0 mph 54 % 0.00 in
02:58 10.5 °F -2.9 °F 30.37 in WSW 3.0 mph 12.0 mph 54 % 0.00 in
03:03 10.5 °F -2.9 °F 30.37 in WNW 6.0 mph 12.0 mph 54 % 0.00 in
03:06 10.5 °F -3.3 °F 30.37 in West 6.0 mph 12.0 mph 53 % 0.00 in
03:11 10.5 °F -3.3 °F 30.37 in WSW 5.0 mph 12.0 mph 53 % 0.00 in
03:16 10.5 °F -3.3 °F 30.37 in WSW 14.0 mph 14.0 mph 53 % 0.00 in
03:21 10.4 °F -3.4 °F 30.37 in SW 6.0 mph 14.0 mph 53 % 0.00 in
03:26 10.5 °F -3.3 °F 30.37 in West 6.0 mph 14.0 mph 53 % 0.00 in
03:31 10.5 °F -3.3 °F 30.37 in SW 5.0 mph 14.0 mph 53 % 0.00 in
03:36 10.4 °F -3.4 °F 30.37 in WSW 6.0 mph 14.0 mph 53 % 0.00 in
03:41 10.2 °F -3.6 °F 30.37 in West 5.0 mph 14.0 mph 53 % 0.00 in
03:46 10.1 °F -3.3 °F 30.38 in WSW 5.0 mph 14.0 mph 54 % 0.00 in
03:47 10.0 °F -3.4 °F 30.38 in West 1.0 mph 14.0 mph 54 % 0.00 in
03:51 10.0 °F -3.4 °F 30.38 in WSW 3.0 mph 11.0 mph 54 % 0.00 in
03:56 9.9 °F -3.5 °F 30.38 in WSW 5.0 mph 10.0 mph 54 % 0.00 in
03:59 9.9 °F -3.5 °F 30.38 in WSW 3.0 mph 10.0 mph 54 % 0.00 in
04:04 9.9 °F -3.5 °F 30.38 in WSW 5.0 mph 11.0 mph 54 % 0.00 in
04:07 9.8 °F -3.5 °F 30.38 in SW 5.0 mph 12.0 mph 54 % 0.00 in
04:12 9.7 °F -3.6 °F 30.38 in WSW 2.0 mph 12.0 mph 54 % 0.00 in
04:17 9.7 °F -3.6 °F 30.38 in West 2.0 mph 12.0 mph 54 % 0.00 in
04:22 9.6 °F -3.7 °F 30.38 in WSW 13.0 mph 13.0 mph 54 % 0.00 in
04:27 9.6 °F -3.7 °F 30.38 in SW 2.0 mph 14.0 mph 54 % 0.00 in
04:30 9.6 °F -3.7 °F 30.38 in WSW 2.0 mph 14.0 mph 54 % 0.00 in
04:35 9.5 °F -3.8 °F 30.38 in SW 4.0 mph 14.0 mph 54 % 0.00 in
04:40 9.4 °F -3.9 °F 30.38 in WSW 5.0 mph 14.0 mph 54 % 0.00 in
04:41 9.3 °F -4.0 °F 30.38 in SW 3.0 mph 10.0 mph 54 % 0.00 in
04:43 9.3 °F -4.0 °F 30.38 in West 5.0 mph 10.0 mph 54 % 0.00 in
04:48 9.2 °F -4.1 °F 30.39 in SW 4.0 mph 14.0 mph 54 % 0.00 in
04:50 9.2 °F -4.1 °F 30.38 in West 6.0 mph 14.0 mph 54 % 0.00 in
04:55 9.1 °F -4.2 °F 30.39 in WSW 3.0 mph 14.0 mph 54 % 0.00 in
05:01 9.2 °F -4.1 °F 30.39 in SW 6.0 mph 14.0 mph 54 % 0.00 in
05:05 9.2 °F -4.1 °F 30.39 in WSW 5.0 mph 14.0 mph 54 % 0.00 in
05:10 9.2 °F -4.1 °F 30.39 in WSW 1.0 mph 16.0 mph 54 % 0.00 in
05:15 9.2 °F -4.1 °F 30.39 in West 4.0 mph 16.0 mph 54 % 0.00 in
05:18 9.1 °F -4.2 °F 30.39 in West 1.0 mph 16.0 mph 54 % 0.00 in
05:23 8.9 °F -4.0 °F 30.40 in West 8.0 mph 16.0 mph 55 % 0.00 in
05:28 9.0 °F -3.9 °F 30.40 in West 3.0 mph 12.0 mph 55 % 0.00 in
05:33 8.9 °F -4.0 °F 30.40 in WSW 1.0 mph 14.0 mph 55 % 0.00 in
05:34 8.9 °F -4.0 °F 30.40 in West 5.0 mph 14.0 mph 55 % 0.00 in
05:39 8.9 °F -4.0 °F 30.40 in West 3.0 mph 14.0 mph 55 % 0.00 in
05:42 8.8 °F -4.1 °F 30.40 in West 4.0 mph 14.0 mph 55 % 0.00 in
05:47 8.8 °F -4.1 °F 30.40 in WSW 5.0 mph 14.0 mph 55 % 0.00 in
05:52 8.8 °F -4.1 °F 30.40 in West 6.0 mph 15.0 mph 55 % 0.00 in
05:57 8.8 °F -4.1 °F 30.41 in WSW 3.0 mph 15.0 mph 55 % 0.00 in
05:59 8.7 °F -4.2 °F 30.41 in WSW 5.0 mph 15.0 mph 55 % 0.00 in
06:04 8.6 °F -3.9 °F 30.41 in WNW 3.0 mph 10.0 mph 56 % 0.00 in
06:09 8.7 °F -4.2 °F 30.41 in SW 8.0 mph 10.0 mph 55 % 0.00 in
06:14 8.7 °F -4.2 °F 30.41 in WSW 3.0 mph 11.0 mph 55 % 0.00 in
06:20 8.7 °F -4.2 °F 30.42 in WSW 3.0 mph 11.0 mph 55 % 0.00 in
06:21 8.7 °F -4.2 °F 30.42 in WSW 5.0 mph 11.0 mph 55 % 0.00 in
06:26 8.6 °F -4.3 °F 30.42 in WSW 4.0 mph 16.0 mph 55 % 0.00 in
06:29 8.6 °F -3.9 °F 30.42 in WSW 4.0 mph 16.0 mph 56 % 0.00 in
06:30 8.7 °F -4.2 °F 30.42 in West 6.0 mph 16.0 mph 55 % 0.00 in
06:35 8.7 °F -4.2 °F 30.42 in WSW 3.0 mph 16.0 mph 55 % 0.00 in
06:45 8.5 °F -4.0 °F 30.42 in WNW 1.0 mph 13.0 mph 56 % 0.00 in
06:50 8.5 °F -4.0 °F 30.42 in WSW 3.0 mph 13.0 mph 56 % 0.00 in
06:52 8.5 °F -4.0 °F 30.42 in West 2.0 mph 13.0 mph 56 % 0.00 in
06:57 8.4 °F -4.1 °F 30.42 in WSW 2.0 mph 13.0 mph 56 % 0.00 in
06:58 8.4 °F -4.1 °F 30.42 in WSW 3.0 mph 13.0 mph 56 % 0.00 in
07:03 8.4 °F -4.1 °F 30.43 in WSW 2.0 mph 13.0 mph 56 % 0.00 in
07:07 8.4 °F -4.1 °F 30.43 in WSW 1.0 mph 12.0 mph 56 % 0.00 in
07:08 8.4 °F -4.1 °F 30.43 in Calm   12.0 mph 56 % 0.00 in
07:13 8.2 °F -4.3 °F 30.43 in WSW 3.0 mph 10.0 mph 56 % 0.00 in
07:18 8.2 °F -3.9 °F 30.43 in SW 1.0 mph 10.0 mph 57 % 0.00 in
07:19 8.1 °F -4.0 °F 30.43 in Calm   10.0 mph 57 % 0.00 in
07:24 8.1 °F -4.0 °F 30.43 in Calm   9.0 mph 57 % 0.00 in
07:29 8.1 °F -4.0 °F 30.43 in Calm   9.0 mph 57 % 0.00 in
07:34 8.1 °F -4.0 °F 30.44 in SW 4.0 mph 10.0 mph 57 % 0.00 in
07:36 8.1 °F -4.0 °F 30.44 in SW 1.0 mph 10.0 mph 57 % 0.00 in
07:38 8.1 °F -4.0 °F 30.44 in WSW 1.0 mph 10.0 mph 57 % 0.00 in
07:44 8.1 °F -4.0 °F 30.44 in WSW 3.0 mph 10.0 mph 57 % 0.00 in
07:45 8.1 °F -4.0 °F 30.44 in WSW 3.0 mph 10.0 mph 57 % 0.00 in
07:50 8.1 °F -4.0 °F 30.44 in WSW 4.0 mph 8.0 mph 57 % 0.00 in
07:52 8.2 °F -3.9 °F 30.44 in Calm   8.0 mph 57 % 0.00 in
07:55 8.2 °F -3.9 °F 30.44 in WSW 2.0 mph 8.0 mph 57 % 0.00 in
08:00 8.2 °F -3.9 °F 30.45 in WSW 2.0 mph 8.0 mph 57 % 0.00 in
08:05 8.2 °F -4.3 °F 30.45 in WSW 9.0 mph 9.0 mph 56 % 0.00 in
08:15 8.5 °F -4.0 °F 30.45 in SW 6.0 mph 12.0 mph 56 % 0.00 in
08:18 8.6 °F -4.3 °F 30.45 in WSW 10.0 mph 12.0 mph 55 % 0.00 in
08:23 8.9 °F -4.0 °F 30.45 in SW 2.0 mph 12.0 mph 55 % 0.00 in
08:24 8.9 °F -4.0 °F 30.45 in West 5.0 mph 12.0 mph 55 % 0.00 in
08:29 9.1 °F -4.2 °F 30.46 in West 4.0 mph 12.0 mph 54 % 0.00 in
08:34 9.3 °F -4.0 °F 30.46 in WSW 3.0 mph 12.0 mph 54 % 0.00 in
08:39 9.4 °F -3.9 °F 30.46 in SW 8.0 mph 13.0 mph 54 % 0.00 in
08:41 9.5 °F -4.2 °F 30.46 in SW 2.0 mph 13.0 mph 53 % 0.00 in
08:46 9.5 °F -3.8 °F 30.46 in WSW 2.0 mph 13.0 mph 54 % 0.00 in
08:50 9.7 °F -4.0 °F 30.46 in WSW 6.0 mph 13.0 mph 53 % 0.00 in
08:55 9.9 °F -3.5 °F 30.47 in WSW 2.0 mph 13.0 mph 54 % 0.00 in
08:57 9.9 °F -3.9 °F 30.47 in WNW 5.0 mph 12.0 mph 53 % 0.00 in
09:02 10.0 °F -3.8 °F 30.47 in West 4.0 mph 13.0 mph 53 % 0.00 in
09:07 10.1 °F -3.7 °F 30.47 in WSW 12.0 mph 14.0 mph 53 % 0.00 in
09:11 10.2 °F -3.6 °F 30.47 in WSW 6.0 mph 15.0 mph 53 % 0.00 in
09:16 10.3 °F -3.9 °F 30.47 in WSW 6.0 mph 17.0 mph 52 % 0.00 in
09:21 10.4 °F -3.8 °F 30.47 in West 4.0 mph 17.0 mph 52 % 0.00 in
09:26 10.6 °F -3.2 °F 30.48 in WNW 3.0 mph 17.0 mph 53 % 0.00 in
09:31 10.8 °F -3.4 °F 30.48 in West 7.0 mph 18.0 mph 52 % 0.00 in
09:36 10.9 °F -3.3 °F 30.48 in WSW 9.0 mph 18.0 mph 52 % 0.00 in
09:40 11.0 °F -3.2 °F 30.48 in SW 9.0 mph 18.0 mph 52 % 0.00 in
09:45 11.2 °F -3.1 °F 30.49 in WSW 6.0 mph 18.0 mph 52 % 0.00 in
09:48 11.3 °F -3.4 °F 30.49 in West 1.0 mph 16.0 mph 51 % 0.00 in
09:53 11.5 °F -2.8 °F 30.49 in WSW 9.0 mph 16.0 mph 52 % 0.00 in
09:58 11.6 °F -3.1 °F 30.48 in WSW 1.0 mph 16.0 mph 51 % 0.00 in
10:01 11.7 °F -2.6 °F 30.48 in WSW 5.0 mph 16.0 mph 52 % 0.00 in
10:06 11.8 °F -2.9 °F 30.48 in WNW 2.0 mph 21.0 mph 51 % 0.00 in
10:07 11.8 °F -2.9 °F 30.48 in WSW 10.0 mph 21.0 mph 51 % 0.00 in
10:12 11.9 °F -2.8 °F 30.48 in WSW 9.0 mph 21.0 mph 51 % 0.00 in
10:17 12.0 °F -2.7 °F 30.48 in WSW 7.0 mph 21.0 mph 51 % 0.00 in
10:21 12.2 °F -2.5 °F 30.48 in SW 12.0 mph 21.0 mph 51 % 0.00 in
10:26 12.3 °F -2.8 °F 30.48 in West 5.0 mph 18.0 mph 50 % 0.00 in
10:32 12.3 °F -2.8 °F 30.48 in West 8.0 mph 18.0 mph 50 % 0.00 in
10:37 12.5 °F -2.2 °F 30.48 in WSW 3.0 mph 18.0 mph 51 % 0.00 in
10:42 12.7 °F -2.5 °F 30.48 in ENE 7.0 mph 17.0 mph 50 % 0.00 in
10:47 12.9 °F -2.3 °F 30.48 in West 3.0 mph 20.0 mph 50 % 0.00 in
10:48 12.9 °F -2.3 °F 30.48 in West 3.0 mph 20.0 mph 50 % 0.00 in
10:53 13.1 °F -2.1 °F 30.48 in West 3.0 mph 20.0 mph 50 % 0.00 in
10:58 13.3 °F -1.9 °F 30.48 in WSW 3.0 mph 20.0 mph 50 % 0.00 in
11:01 13.4 °F -1.8 °F 30.47 in West 12.0 mph 20.0 mph 50 % 0.00 in
11:06 13.5 °F -2.1 °F 30.48 in WNW 8.0 mph 20.0 mph 49 % 0.00 in
11:11 13.6 °F -2.1 °F 30.47 in West 11.0 mph 19.0 mph 49 % 0.00 in
11:12 13.6 °F -2.1 °F 30.47 in WSW 3.0 mph 19.0 mph 49 % 0.00 in
11:17 13.6 °F -2.1 °F 30.47 in WSW 10.0 mph 19.0 mph 49 % 0.00 in
11:22 13.8 °F -1.9 °F 30.47 in WSW 5.0 mph 19.0 mph 49 % 0.00 in
11:27 14.0 °F -2.1 °F 30.47 in WSW 7.0 mph 19.0 mph 48 % 0.00 in
11:32 14.0 °F -2.2 °F 30.47 in WSW 5.0 mph 19.0 mph 48 % 0.00 in
11:39 14.3 °F -1.5 °F 30.47 in WSW 6.0 mph 19.0 mph 49 % 0.00 in
11:44 14.5 °F -1.7 °F 30.47 in NE 7.0 mph 19.0 mph 48 % 0.00 in
11:49 14.7 °F -1.1 °F 30.46 in WSW 12.0 mph 18.0 mph 49 % 0.00 in
11:52 14.8 °F -1.0 °F 30.46 in WNW 9.0 mph 18.0 mph 49 % 0.00 in
11:57 14.9 °F -1.4 °F 30.46 in West 1.0 mph 20.0 mph 48 % 0.00 in
12:01 14.9 °F -1.8 °F 30.46 in WSW 9.0 mph 21.0 mph 47 % 0.00 in
12:06 15.0 °F -1.3 °F 30.46 in WSW 6.0 mph 21.0 mph 48 % 0.00 in
12:09 15.1 °F -1.6 °F 30.46 in North 4.0 mph 21.0 mph 47 % 0.00 in
12:14 15.2 °F -1.5 °F 30.45 in WNW 1.0 mph 21.0 mph 47 % 0.00 in
12:19 15.3 °F -1.4 °F 30.45 in West 8.0 mph 18.0 mph 47 % 0.00 in
12:20 15.4 °F -1.4 °F 30.45 in West 5.0 mph 18.0 mph 47 % 0.00 in
12:25 15.4 °F -1.4 °F 30.44 in WSW 8.0 mph 18.0 mph 47 % 0.00 in
12:28 15.5 °F -1.3 °F 30.45 in WNW 2.0 mph 18.0 mph 47 % 0.00 in
12:33 15.6 °F -1.6 °F 30.44 in WSW 5.0 mph 18.0 mph 46 % 0.00 in
12:34 15.6 °F -1.6 °F 30.45 in WSW 3.0 mph 18.0 mph 46 % 0.00 in
12:39 15.8 °F -1.0 °F 30.45 in SW 5.0 mph 23.0 mph 47 % 0.00 in
12:44 15.8 °F -1.5 °F 30.44 in West 1.0 mph 23.0 mph 46 % 0.00 in
12:49 15.9 °F -1.4 °F 30.44 in WNW 6.0 mph 23.0 mph 46 % 0.00 in
12:54 15.9 °F -1.8 °F 30.44 in NNE 7.0 mph 21.0 mph 45 % 0.00 in
12:56 15.9 °F -1.8 °F 30.43 in West 5.0 mph 21.0 mph 45 % 0.00 in
13:01 16.1 °F -1.2 °F 30.43 in SW 14.0 mph 21.0 mph 46 % 0.00 in
13:06 16.1 °F -1.2 °F 30.44 in WSW 16.0 mph 21.0 mph 46 % 0.00 in
13:07 16.2 °F -1.1 °F 30.44 in North 4.0 mph 21.0 mph 46 % 0.00 in
13:13 16.4 °F -0.9 °F 30.44 in WSW 15.0 mph 18.0 mph 46 % 0.00 in
13:18 16.6 °F -0.6 °F 30.43 in WSW 5.0 mph 18.0 mph 46 % 0.00 in
13:19 16.6 °F -1.1 °F 30.43 in WNW 4.0 mph 18.0 mph 45 % 0.00 in
13:21 16.7 °F -0.5 °F 30.43 in SW 9.0 mph 18.0 mph 46 % 0.00 in
13:26 16.7 °F -1.0 °F 30.43 in WNW 3.0 mph 20.0 mph 45 % 0.00 in
13:31 16.6 °F -1.2 °F 30.43 in WSW 8.0 mph 20.0 mph 45 % 0.00 in
13:36 16.8 °F -0.5 °F 30.43 in NNE 5.0 mph 20.0 mph 46 % 0.00 in
13:41 17.1 °F -0.7 °F 30.43 in SW 15.0 mph 20.0 mph 45 % 0.00 in
13:46 16.8 °F -2.0 °F 30.44 in NNE 5.0 mph 20.0 mph 43 % 0.00 in
13:47 16.9 °F -1.4 °F 30.44 in Calm   20.0 mph 44 % 0.00 in
13:52 17.0 °F -0.8 °F 30.44 in West 9.0 mph 19.0 mph 45 % 0.00 in
13:57 17.0 °F -0.7 °F 30.44 in NNE 6.0 mph 19.0 mph 45 % 0.00 in
14:01 17.1 °F -0.6 °F 30.43 in NW 9.0 mph 19.0 mph 45 % 0.00 in
14:06 17.0 °F -1.2 °F 30.43 in WSW 6.0 mph 19.0 mph 44 % 0.00 in
14:11 17.0 °F -1.2 °F 30.43 in North 8.0 mph 15.0 mph 44 % 0.00 in
14:14 17.0 °F -1.2 °F 30.43 in West 4.0 mph 15.0 mph 44 % 0.00 in
14:19 17.1 °F -0.6 °F 30.43 in WNW 6.0 mph 15.0 mph 45 % 0.00 in
14:22 17.2 °F -1.0 °F 30.44 in WSW 5.0 mph 15.0 mph 44 % 0.00 in
14:27 17.2 °F -1.1 °F 30.44 in North 5.0 mph 15.0 mph 44 % 0.00 in
14:33 17.2 °F -1.1 °F 30.44 in WSW 8.0 mph 15.0 mph 44 % 0.00 in
14:35 17.1 °F -1.7 °F 30.44 in WSW 7.0 mph 15.0 mph 43 % 0.00 in
14:40 17.1 °F -1.2 °F 30.44 in WNW 2.0 mph 15.0 mph 44 % 0.00 in
14:45 17.3 °F -0.6 °F 30.44 in WSW 6.0 mph 17.0 mph 45 % 0.00 in
14:50 17.2 °F -1.6 °F 30.45 in WSW 7.0 mph 17.0 mph 43 % 0.00 in
14:55 17.1 °F -1.7 °F 30.45 in West 2.0 mph 17.0 mph 43 % 0.00 in
15:00 17.2 °F -1.6 °F 30.45 in WNW 2.0 mph 17.0 mph 43 % 0.00 in
15:05 17.3 °F -1.0 °F 30.45 in West 4.0 mph 18.0 mph 44 % 0.00 in
15:10 17.2 °F -1.6 °F 30.46 in WSW 7.0 mph 21.0 mph 43 % 0.00 in
15:11 17.2 °F -1.5 °F 30.46 in WSW 9.0 mph 21.0 mph 43 % 0.00 in
15:16 17.3 °F -1.4 °F 30.46 in North 6.0 mph 21.0 mph 43 % 0.00 in
15:20 17.3 °F -0.9 °F 30.46 in SW 16.0 mph 21.0 mph 44 % 0.00 in
15:25 17.2 °F -1.5 °F 30.46 in SSE 4.0 mph 21.0 mph 43 % 0.00 in
15:30 17.2 °F -1.5 °F 30.46 in North 4.0 mph 18.0 mph 43 % 0.00 in
15:32 17.2 °F -1.0 °F 30.46 in North 8.0 mph 18.0 mph 44 % 0.00 in
15:37 17.2 °F -1.0 °F 30.47 in WSW 5.0 mph 18.0 mph 44 % 0.00 in
15:40 17.2 °F -1.5 °F 30.47 in NW 3.0 mph 18.0 mph 43 % 0.00 in
15:45 17.1 °F -1.7 °F 30.47 in WSW 4.0 mph 18.0 mph 43 % 0.00 in
15:50 17.0 °F -1.3 °F 30.47 in West 1.0 mph 17.0 mph 44 % 0.00 in
15:55 16.9 °F -1.4 °F 30.48 in North 2.0 mph 17.0 mph 44 % 0.00 in
15:59 16.8 °F -1.5 °F 30.48 in WNW 1.0 mph 17.0 mph 44 % 0.00 in
16:04 16.7 °F -1.6 °F 30.48 in NW 6.0 mph 14.0 mph 44 % 0.00 in
16:09 16.6 °F -1.7 °F 30.48 in WSW 6.0 mph 14.0 mph 44 % 0.00 in
16:14 16.5 °F -1.8 °F 30.48 in SW 9.0 mph 16.0 mph 44 % 0.00 in
16:19 16.3 °F -2.0 °F 30.49 in NE 2.0 mph 16.0 mph 44 % 0.00 in
16:24 16.2 °F -2.5 °F 30.49 in WNW 4.0 mph 17.0 mph 43 % 0.00 in
16:29 16.0 °F -2.2 °F 30.49 in NNE 4.0 mph 17.0 mph 44 % 0.00 in
16:32 16.0 °F -2.2 °F 30.49 in WSW 6.0 mph 17.0 mph 44 % 0.00 in
16:37 15.8 °F -2.4 °F 30.49 in West 5.0 mph 17.0 mph 44 % 0.00 in
16:38 15.8 °F -1.9 °F 30.49 in WNW 1.0 mph 17.0 mph 45 % 0.00 in
16:43 15.6 °F -2.6 °F 30.49 in West 5.0 mph 18.0 mph 44 % 0.00 in
16:48 15.5 °F -2.2 °F 30.50 in WSW 8.0 mph 18.0 mph 45 % 0.00 in
16:52 15.4 °F -2.3 °F 30.50 in WSW 4.0 mph 18.0 mph 45 % 0.00 in
16:57 15.2 °F -2.0 °F 30.50 in WSW 4.0 mph 18.0 mph 46 % 0.00 in
16:58 15.2 °F -2.0 °F 30.50 in WNW 2.0 mph 18.0 mph 46 % 0.00 in
17:03 15.0 °F -2.1 °F 30.50 in NW 6.0 mph 14.0 mph 46 % 0.00 in
17:07 15.0 °F -2.1 °F 30.50 in WSW 5.0 mph 14.0 mph 46 % 0.00 in
17:12 15.0 °F -2.1 °F 30.51 in NNE 1.0 mph 14.0 mph 46 % 0.00 in
17:17 14.9 °F -2.2 °F 30.51 in West 6.0 mph 16.0 mph 46 % 0.00 in
17:22 14.8 °F -2.4 °F 30.51 in WSW 5.0 mph 16.0 mph 46 % 0.00 in
17:25 14.7 °F -2.5 °F 30.51 in NW 4.0 mph 16.0 mph 46 % 0.00 in
17:30 14.6 °F -2.6 °F 30.51 in Calm   16.0 mph 46 % 0.00 in
17:35 14.4 °F -2.3 °F 30.51 in WSW 2.0 mph 11.0 mph 47 % 0.00 in
17:40 14.3 °F -2.4 °F 30.52 in NW 2.0 mph 15.0 mph 47 % 0.00 in
17:45 14.2 °F -2.5 °F 30.52 in Calm   15.0 mph 47 % 0.00 in
17:50 14.1 °F -2.5 °F 30.52 in WSW 7.0 mph 15.0 mph 47 % 0.00 in
17:55 14.1 °F -2.5 °F 30.52 in WSW 9.0 mph 15.0 mph 47 % 0.00 in
17:57 14.0 °F -2.6 °F 30.52 in West 6.0 mph 14.0 mph 47 % 0.00 in
18:02 13.9 °F -2.7 °F 30.52 in WSW 12.0 mph 14.0 mph 47 % 0.00 in
18:07 13.9 °F -2.7 °F 30.53 in WSW 6.0 mph 14.0 mph 47 % 0.00 in
18:12 13.9 °F -2.7 °F 30.53 in Calm   14.0 mph 47 % 0.00 in
18:17 13.7 °F -2.4 °F 30.53 in West 1.0 mph 14.0 mph 48 % 0.00 in
18:23 13.6 °F -2.5 °F 30.53 in WSW 5.0 mph 13.0 mph 48 % 0.00 in
18:25 13.6 °F -2.5 °F 30.54 in SW 4.0 mph 10.0 mph 48 % 0.00 in
18:30 13.6 °F -2.5 °F 30.54 in WNW 2.0 mph 13.0 mph 48 % 0.00 in
18:35 13.6 °F -2.6 °F 30.54 in Calm   13.0 mph 48 % 0.00 in
18:40 13.4 °F -2.7 °F 30.54 in NNE 5.0 mph 13.0 mph 48 % 0.00 in
18:45 13.4 °F -2.7 °F 30.54 in NW 1.0 mph 13.0 mph 48 % 0.00 in
18:50 13.3 °F -2.8 °F 30.54 in WSW 3.0 mph 11.0 mph 48 % 0.00 in
18:53 13.3 °F -2.8 °F 30.55 in WSW 3.0 mph 11.0 mph 48 % 0.00 in
18:59 13.2 °F -2.5 °F 30.55 in NNE 4.0 mph 12.0 mph 49 % 0.00 in
19:04 13.2 °F -2.5 °F 30.56 in Calm   12.0 mph 49 % 0.00 in
19:09 13.1 °F -2.6 °F 30.55 in North 3.0 mph 12.0 mph 49 % 0.00 in
19:14 13.0 °F -2.7 °F 30.56 in WSW 1.0 mph 12.0 mph 49 % 0.00 in
19:19 13.0 °F -2.7 °F 30.56 in NW 2.0 mph 10.0 mph 49 % 0.00 in
19:24 12.9 °F -2.3 °F 30.56 in Calm   10.0 mph 50 % 0.00 in
19:29 12.9 °F -2.3 °F 30.56 in WSW 5.0 mph 10.0 mph 50 % 0.00 in
19:34 12.8 °F -2.4 °F 30.56 in WSW 2.0 mph 10.0 mph 50 % 0.00 in
19:39 12.9 °F -2.3 °F 30.56 in WNW 1.0 mph 11.0 mph 50 % 0.00 in
19:44 12.9 °F -2.3 °F 30.56 in WSW 2.0 mph 13.0 mph 50 % 0.00 in
19:49 12.9 °F -2.3 °F 30.57 in Calm   13.0 mph 50 % 0.00 in
19:54 12.7 °F -2.5 °F 30.57 in WSW 1.0 mph 13.0 mph 50 % 0.00 in
19:55 12.7 °F -2.5 °F 30.57 in Calm   13.0 mph 50 % 0.00 in
20:01 12.6 °F -2.6 °F 30.57 in WSW 1.0 mph 7.0 mph 50 % 0.00 in
20:02 12.6 °F -2.6 °F 30.57 in Calm   7.0 mph 50 % 0.00 in
20:07 12.5 °F -2.6 °F 30.57 in North 3.0 mph 8.0 mph 50 % 0.00 in
20:10 12.5 °F -2.6 °F 30.58 in NW 1.0 mph 8.0 mph 50 % 0.00 in
20:15 12.4 °F -2.7 °F 30.58 in WNW 4.0 mph 9.0 mph 50 % 0.00 in
20:20 12.5 °F -2.6 °F 30.58 in Calm   9.0 mph 50 % 0.00 in
20:25 12.4 °F -2.7 °F 30.57 in WSW 3.0 mph 9.0 mph 50 % 0.00 in
20:26 12.4 °F -2.7 °F 30.57 in West 4.0 mph 9.0 mph 50 % 0.00 in
20:29 12.4 °F -2.7 °F 30.57 in WNW 3.0 mph 9.0 mph 50 % 0.00 in
20:33 12.3 °F -2.4 °F 30.57 in WNW 1.0 mph 8.0 mph 51 % 0.00 in
20:38 12.1 °F -2.6 °F 30.58 in Calm   9.0 mph 51 % 0.00 in
20:43 12.0 °F -2.3 °F 30.58 in West 3.0 mph 9.0 mph 52 % 0.00 in
20:48 12.0 °F -2.7 °F 30.58 in Calm   9.0 mph 51 % 0.00 in
20:53 11.9 °F -2.4 °F 30.57 in Calm   8.0 mph 52 % 0.00 in
20:54 12.0 °F -2.3 °F 30.57 in West 2.0 mph 8.0 mph 52 % 0.00 in
20:59 11.9 °F -2.4 °F 30.58 in NNE 1.0 mph 9.0 mph 52 % 0.00 in
21:00 11.9 °F -2.4 °F 30.58 in WSW 5.0 mph 9.0 mph 52 % 0.00 in
21:06 11.9 °F -2.4 °F 30.58 in Calm   9.0 mph 52 % 0.00 in
21:11 11.9 °F -2.4 °F 30.58 in WSW 2.0 mph 9.0 mph 52 % 0.00 in
21:13 11.9 °F -2.4 °F 30.58 in West 2.0 mph 10.0 mph 52 % 0.00 in
21:18 11.9 °F -2.4 °F 30.58 in Calm   12.0 mph 52 % 0.00 in
21:23 12.0 °F -2.3 °F 30.58 in Calm   12.0 mph 52 % 0.00 in
21:28 11.8 °F -2.5 °F 30.59 in NNE 3.0 mph 12.0 mph 52 % 0.00 in
21:33 11.7 °F -2.2 °F 30.59 in Calm   12.0 mph 53 % 0.00 in
21:38 11.6 °F -2.3 °F 30.59 in WNW 2.0 mph 7.0 mph 53 % 0.00 in
21:39 11.6 °F -2.3 °F 30.59 in WNW 2.0 mph 7.0 mph 53 % 0.00 in
21:44 11.6 °F -2.3 °F 30.59 in West 3.0 mph 7.0 mph 53 % 0.00 in
21:49 11.6 °F -2.3 °F 30.59 in West 2.0 mph 8.0 mph 53 % 0.00 in
21:54 11.6 °F -2.3 °F 30.59 in WSW 1.0 mph 8.0 mph 53 % 0.00 in
21:59 11.5 °F -2.4 °F 30.60 in Calm   8.0 mph 53 % 0.00 in
22:04 11.4 °F -2.1 °F 30.60 in Calm   8.0 mph 54 % 0.00 in
22:06 11.4 °F -2.1 °F 30.60 in Calm   8.0 mph 54 % 0.00 in
22:11 11.2 °F -2.2 °F 30.60 in WSW 2.0 mph 7.0 mph 54 % 0.00 in
22:15 11.1 °F -2.3 °F 30.60 in Calm   6.0 mph 54 % 0.00 in
22:20 11.1 °F -1.9 °F 30.60 in Calm   8.0 mph 55 % 0.00 in
22:25 11.0 °F -2.0 °F 30.60 in West 4.0 mph 8.0 mph 55 % 0.00 in
22:28 11.1 °F -1.9 °F 30.60 in Calm   8.0 mph 55 % 0.00 in
22:33 11.1 °F -1.9 °F 30.60 in Calm   8.0 mph 55 % 0.00 in
22:34 11.1 °F -1.9 °F 30.60 in Calm   8.0 mph 55 % 0.00 in
22:39 11.0 °F -2.0 °F 30.60 in WNW 4.0 mph 5.0 mph 55 % 0.00 in
22:44 11.1 °F -1.9 °F 30.60 in Calm   8.0 mph 55 % 0.00 in
22:45 11.1 °F -1.9 °F 30.60 in Calm   8.0 mph 55 % 0.00 in
22:50 11.2 °F -1.8 °F 30.60 in WSW 1.0 mph 9.0 mph 55 % 0.00 in
22:53 11.2 °F -1.5 °F 30.60 in WNW 1.0 mph 9.0 mph 56 % 0.00 in
22:58 11.3 °F -1.8 °F 30.61 in WSW 2.0 mph 10.0 mph 55 % 0.00 in
23:03 11.3 °F -1.8 °F 30.61 in West 3.0 mph 10.0 mph 55 % 0.00 in
23:08 11.3 °F -1.8 °F 30.61 in WSW 5.0 mph 10.0 mph 55 % 0.00 in
23:13 11.3 °F -1.4 °F 30.61 in WSW 6.0 mph 11.0 mph 56 % 0.00 in
23:19 11.2 °F -1.5 °F 30.61 in West 2.0 mph 11.0 mph 56 % 0.00 in
23:24 11.1 °F -1.6 °F 30.61 in Calm   11.0 mph 56 % 0.00 in
23:26 11.1 °F -1.6 °F 30.61 in Calm   11.0 mph 56 % 0.00 in
23:31 10.9 °F -1.7 °F 30.61 in Calm   7.0 mph 56 % 0.00 in
23:36 10.8 °F -1.5 °F 30.61 in Calm   8.0 mph 57 % 0.00 in
23:41 10.7 °F -1.6 °F 30.62 in West 3.0 mph 8.0 mph 57 % 0.00 in
23:46 10.7 °F -1.6 °F 30.62 in West 1.0 mph 8.0 mph 57 % 0.00 in
23:51 10.6 °F -1.7 °F 30.62 in Calm   8.0 mph 57 % 0.00 in
23:54 10.5 °F -1.8 °F 30.62 in West 3.0 mph 6.0 mph 57 % 0.00 in
23:56 10.5 °F -1.8 °F 30.61 in Calm   6.0 mph 57 % 0.00 in
MarylandWx.com
Compliments of Weather Underground - 6.75 mb